Cabot Strait: Past 24 Hour Conditions

 

J.A. Douglas McCurdy Sydney Airport

03:00 PM ADT 29 July 2014
This table is a summary of hourly weather conditions for the past 24 hours.
Date / Time
(ADT)
Wind(knots) Conditions Visibility(km) Pressure(kPa) Air tempC) Relative humidity(%) Dew pointC) Humidex
29 July 2014
15:00 SSW 13 gust 18 Cloudy 16 101.3 25 77 20 33
14:00 SSW 14 gust 21 Cloudy 16 101.3 24 83 21 33
13:00 SSW 9 gust 17 Haze 6 101.3 23 85 20 30
12:00 S 14 gust 20 Cloudy 24 101.3 24 77 20 31
11:00 SSW 15 gust 23 Cloudy 24 101.2 25 77 20 32
10:00 SSW 14 gust 21 Mostly Cloudy 24 101.2 24 77 20 31
9:00 S 13 gust 20 Partly Cloudy 16 101.2 22 88 20 30
8:00 SSW 12 gust 24 Fog 6 101.1 22 93 20 29
7:00 S 15 gust 20 Fog 2 101.1 21 96 20 29
6:00 S 12 gust 18 Fog 2 101.1 21 96 20 29
5:00 S 12 gust 20 Light Rainshower 3 101.0 21 96 20 28
4:00 S 13 gust 22 Light Rain 2 101.0 21 96 20 28
3:00 SSE 10 gust 16 Mostly Cloudy 13 101.0 20 97 20 28
2:00 S 10 Light Drizzle 2 101.1 20 98 20 28
1:00 SSE 12 Light Drizzle 2 101.2 20 96 19 *
0:00 SE 10 Light Drizzle 0.8 101.2 20 97 19 *
28 July 2014
23:00 SSE 13 Light Drizzle 1 101.3 19 96 19 *
22:00 SSE 11 Light Drizzle 2 101.3 19 97 19 *
21:00 SSE 13 gust 19 Light Rain 2 101.3 20 96 19 *
20:00 SSE 10 gust 16 Light Drizzle 2 101.3 20 97 19 *
19:00 SSE 11 gust 16 Light Rain 2 101.4 20 96 19 *
18:00 S 15 Light Rainshower 3 101.4 20 93 19 27
17:00 S 9 gust 20 Light Rainshower 5 101.4 20 93 19 27
16:00 SSE 14 gust 21 Rainshower 6 101.4 21 93 20 28
15:00 SSE 15 gust 23 Light Rainshower 8 101.4 22 90 20 29
 
Map of Atlantic - Newfoundland marine weather areas Southwestern Grand Banks - 44138 Banquereau - 44139 Tail of the Bank - 44140 Nickerson Bank - 44251 Northeast Burgeo Bank - 44255 Blanc-Sablon Airport Cap Whittle Chevery Natashquan Airport Heath Point Miscou Island Grand Étang Ingonish Beach North Mountain St.Paul Island J.A. Douglas McCurdy Sydney Airport Charlottetown Airport East Point North Cape Argentia Bonavista Burgeo Cape Race Corner Brook Daniel's Harbour Englee Ferolle Point La Scie Port aux Basques Rocky Harbour Sagona Island St. Anthony Airport St. John's Int'l Airport St. Lawrence Stephenville Airport Twillingate Winterland Wreckhouse Cartwright Airport Mary's Harbour Grates Cove Pool's Island Marticot Island Long Pond Îles de la Madeleine Airport
Legend: buoyBuoy land stationLand Station